Time,TemperatureF,DewpointF,PressureIn,WindDirection,WindDirectionDegrees,WindSpeedMPH,WindSpeedGustMPH,Humidity,HourlyPrecipIn,Conditions,Clouds,dailyrainin,SoftwareType,DateUTC
2013-06-16 00:02:00,74.0,65.0,30.11,WSW,250,3.0,4.0,73,0.00,,,0.00,,2013-06-16 04:02:00,
2013-06-16 00:12:00,74.0,65.0,30.11,WSW,238,4.0,6.0,73,0.00,,,0.00,,2013-06-16 04:12:00,
2013-06-16 00:23:00,74.0,65.0,30.11,SW,236,1.0,5.0,73,0.00,,,0.00,,2013-06-16 04:23:00,
2013-06-16 00:34:00,74.0,65.0,30.11,SW,236,1.0,5.0,73,0.00,,,0.00,,2013-06-16 04:34:00,
2013-06-16 00:43:00,73.0,64.0,30.11,SW,232,2.0,5.0,73,0.00,,,0.00,,2013-06-16 04:43:00,
2013-06-16 00:53:00,74.0,65.0,30.12,SW,224,4.0,6.0,74,0.00,,,0.00,,2013-06-16 04:53:00,
2013-06-16 01:02:00,74.0,65.0,30.12,SW,224,4.0,6.0,74,0.00,,,0.00,,2013-06-16 05:02:00,
2013-06-16 01:12:00,73.0,64.0,30.12,SW,232,1.0,5.0,74,0.00,,,0.00,,2013-06-16 05:12:00,
2013-06-16 01:22:00,74.0,66.0,30.12,West,267,2.0,5.0,75,0.00,,,0.00,,2013-06-16 05:22:00,
2013-06-16 01:34:00,74.0,66.0,30.12,West,267,2.0,5.0,75,0.00,,,0.00,,2013-06-16 05:34:00,
2013-06-16 01:43:00,73.0,65.0,30.12,West,277,0.0,3.0,76,0.00,,,0.00,,2013-06-16 05:43:00,
2013-06-16 01:52:00,72.0,64.0,30.12,West,276,0.0,2.0,77,0.00,,,0.00,,2013-06-16 05:52:00,
2013-06-16 02:01:00,72.0,64.0,30.12,West,276,0.0,2.0,77,0.00,,,0.00,,2013-06-16 06:01:00,
2013-06-16 02:12:00,72.0,65.0,30.12,West,280,0.0,4.0,78,0.00,,,0.00,,2013-06-16 06:12:00,
2013-06-16 02:23:00,72.0,65.0,30.12,WNW,293,0.0,2.0,79,0.00,,,0.00,,2013-06-16 06:23:00,
2013-06-16 02:33:00,72.0,65.0,30.12,WNW,293,0.0,2.0,79,0.00,,,0.00,,2013-06-16 06:33:00,
2013-06-16 02:43:00,72.0,65.0,30.12,WNW,288,0.0,2.0,79,0.00,,,0.00,,2013-06-16 06:43:00,
2013-06-16 02:52:00,71.0,65.0,30.12,WNW,287,0.0,2.0,80,0.00,,,0.00,,2013-06-16 06:52:00,
2013-06-16 03:01:00,71.0,65.0,30.12,WNW,287,0.0,2.0,80,0.00,,,0.00,,2013-06-16 07:01:00,
2013-06-16 03:12:00,71.0,65.0,30.12,WNW,283,0.0,3.0,80,0.00,,,0.00,,2013-06-16 07:12:00,
2013-06-16 03:23:00,72.0,66.0,30.12,West,280,0.0,2.0,81,0.00,,,0.00,,2013-06-16 07:23:00,
2013-06-16 03:33:00,72.0,66.0,30.12,West,280,0.0,2.0,81,0.00,,,0.00,,2013-06-16 07:33:00,
2013-06-16 03:43:00,72.0,66.0,30.12,West,271,0.0,3.0,82,0.00,,,0.00,,2013-06-16 07:43:00,
2013-06-16 03:53:00,71.0,65.0,30.11,West,275,1.0,4.0,82,0.00,,,0.00,,2013-06-16 07:53:00,
2013-06-16 04:02:00,71.0,65.0,30.11,West,275,1.0,4.0,82,0.00,,,0.00,,2013-06-16 08:02:00,
2013-06-16 04:12:00,71.0,65.0,30.11,WNW,298,0.0,6.0,82,0.00,,,0.00,,2013-06-16 08:12:00,
2013-06-16 04:22:00,71.0,66.0,30.11,WSW,252,0.0,3.0,83,0.00,,,0.00,,2013-06-16 08:22:00,
2013-06-16 04:34:00,71.0,66.0,30.11,WSW,252,0.0,3.0,83,0.00,,,0.00,,2013-06-16 08:34:00,
2013-06-16 04:43:00,71.0,66.0,30.11,West,278,1.0,4.0,83,0.00,,,0.00,,2013-06-16 08:43:00,
2013-06-16 04:54:00,71.0,66.0,30.11,North,3,0.0,3.0,83,0.00,,,0.00,,2013-06-16 08:54:00,
2013-06-16 05:02:00,71.0,66.0,30.11,North,3,0.0,3.0,83,0.00,,,0.00,,2013-06-16 09:02:00,
2013-06-16 05:11:00,71.0,66.0,30.11,West,260,1.0,5.0,83,0.00,,,0.00,,2013-06-16 09:11:00,
2013-06-16 05:22:00,71.0,66.0,30.12,WSW,238,1.0,4.0,83,0.00,,,0.00,,2013-06-16 09:22:00,
2013-06-16 05:33:00,71.0,66.0,30.12,WSW,238,1.0,4.0,83,0.00,,,0.00,,2013-06-16 09:33:00,
2013-06-16 05:43:00,71.0,66.0,30.12,West,266,1.0,3.0,83,0.00,,,0.00,,2013-06-16 09:43:00,
2013-06-16 05:52:00,71.0,66.0,30.13,West,280,0.0,3.0,83,0.00,,,0.00,,2013-06-16 09:52:00,
2013-06-16 06:02:00,71.0,66.0,30.13,West,280,0.0,3.0,83,0.00,,,0.00,,2013-06-16 10:02:00,
2013-06-16 06:12:00,72.0,67.0,30.14,WSW,253,1.0,2.0,83,0.00,,,0.00,,2013-06-16 10:12:00,
2013-06-16 06:22:00,72.0,67.0,30.14,WNW,282,1.0,3.0,83,0.00,,,0.00,,2013-06-16 10:22:00,
2013-06-16 06:33:00,72.0,67.0,30.14,WNW,282,1.0,3.0,83,0.00,,,0.00,,2013-06-16 10:33:00,
2013-06-16 06:43:00,72.0,67.0,30.14,SW,226,1.0,5.0,83,0.00,,,0.00,,2013-06-16 10:43:00,
2013-06-16 06:53:00,72.0,67.0,30.14,WSW,240,1.0,5.0,83,0.00,,,0.00,,2013-06-16 10:53:00,
2013-06-16 07:02:00,72.0,67.0,30.14,WSW,240,1.0,5.0,83,0.00,,,0.00,,2013-06-16 11:02:00,
2013-06-16 07:12:00,72.0,67.0,30.14,WSW,252,1.0,4.0,83,0.00,,,0.00,,2013-06-16 11:12:00,
2013-06-16 07:22:00,72.0,67.0,30.14,West,260,0.0,4.0,83,0.00,,,0.00,,2013-06-16 11:22:00,
2013-06-16 07:34:00,72.0,67.0,30.14,West,260,0.0,4.0,83,0.00,,,0.00,,2013-06-16 11:34:00,
2013-06-16 07:43:00,73.0,68.0,30.15,West,269,1.0,3.0,83,0.00,,,0.00,,2013-06-16 11:43:00,
2013-06-16 07:52:00,73.0,68.0,30.15,WNW,288,0.0,2.0,83,0.00,,,0.00,,2013-06-16 11:52:00,
2013-06-16 08:02:00,73.0,68.0,30.15,WNW,288,0.0,2.0,83,0.00,,,0.00,,2013-06-16 12:02:00,
2013-06-16 08:12:00,73.0,68.0,30.15,West,266,1.0,4.0,83,0.00,,,0.00,,2013-06-16 12:12:00,
2013-06-16 08:22:00,73.0,68.0,30.15,West,266,1.0,4.0,83,0.00,,,0.00,,2013-06-16 12:22:00,
2013-06-16 08:33:00,73.0,68.0,30.16,West,264,1.0,3.0,83,0.00,,,0.00,,2013-06-16 12:33:00,
2013-06-16 08:43:00,75.0,68.0,30.15,West,273,1.0,5.0,80,0.00,,,0.00,,2013-06-16 12:43:00,
2013-06-16 08:53:00,76.0,68.0,30.16,WSW,243,2.0,6.0,77,0.00,,,0.00,,2013-06-16 12:53:00,
2013-06-16 09:01:00,76.0,68.0,30.16,WSW,243,2.0,6.0,77,0.00,,,0.00,,2013-06-16 13:01:00,
2013-06-16 09:12:00,77.0,68.0,30.16,SW,232,3.0,5.0,75,0.00,,,0.00,,2013-06-16 13:12:00,
2013-06-16 09:22:00,77.0,68.0,30.16,SW,232,3.0,7.0,74,0.00,,,0.00,,2013-06-16 13:22:00,
2013-06-16 09:34:00,77.0,68.0,30.16,SW,232,3.0,7.0,74,0.00,,,0.00,,2013-06-16 13:34:00,
2013-06-16 09:43:00,78.0,69.0,30.16,WSW,243,5.0,10.0,73,0.00,,,0.00,,2013-06-16 13:43:00,
2013-06-16 09:53:00,78.0,69.0,30.16,WSW,243,5.0,10.0,73,0.00,,,0.00,,2013-06-16 13:53:00,
2013-06-16 10:02:00,78.0,69.0,30.16,WSW,239,3.0,9.0,73,0.00,,,0.00,,2013-06-16 14:02:00,
2013-06-16 10:12:00,79.0,68.0,30.16,WSW,256,6.0,11.0,70,0.00,,,0.00,,2013-06-16 14:12:00,
2013-06-16 10:22:00,79.0,68.0,30.16,WSW,243,5.0,11.0,69,0.00,,,0.00,,2013-06-16 14:22:00,
2013-06-16 10:34:00,79.0,68.0,30.16,WSW,243,5.0,11.0,69,0.00,,,0.00,,2013-06-16 14:34:00,
2013-06-16 10:43:00,80.0,69.0,30.15,West,279,3.0,11.0,70,0.00,,,0.00,,2013-06-16 14:43:00,
2013-06-16 10:52:00,81.0,69.0,30.15,WSW,240,3.0,5.0,68,0.00,,,0.00,,2013-06-16 14:52:00,
2013-06-16 11:02:00,81.0,69.0,30.15,WSW,240,3.0,5.0,68,0.00,,,0.00,,2013-06-16 15:02:00,
2013-06-16 11:12:00,80.0,69.0,30.15,SW,233,5.0,8.0,69,0.00,,,0.00,,2013-06-16 15:12:00,
2013-06-16 11:23:00,81.0,69.0,30.14,WSW,238,3.0,8.0,67,0.00,,,0.00,,2013-06-16 15:23:00,
2013-06-16 11:34:00,81.0,69.0,30.14,WSW,238,3.0,8.0,67,0.00,,,0.00,,2013-06-16 15:34:00,
2013-06-16 11:43:00,80.0,68.0,30.14,West,274,4.0,10.0,68,0.00,,,0.00,,2013-06-16 15:43:00,
2013-06-16 11:52:00,81.0,68.0,30.14,SW,233,6.0,9.0,65,0.00,,,0.00,,2013-06-16 15:52:00,
2013-06-16 12:02:00,81.0,68.0,30.14,SW,233,6.0,9.0,65,0.00,,,0.00,,2013-06-16 16:02:00,
2013-06-16 12:12:00,81.0,66.0,30.13,SW,236,6.0,10.0,61,0.00,,,0.00,,2013-06-16 16:12:00,
2013-06-16 12:23:00,81.0,66.0,30.12,WSW,238,8.0,10.0,60,0.00,,,0.00,,2013-06-16 16:23:00,
2013-06-16 12:33:00,81.0,66.0,30.12,WSW,238,8.0,10.0,60,0.00,,,0.00,,2013-06-16 16:33:00,
2013-06-16 12:43:00,81.0,68.0,30.12,SSW,212,7.0,10.0,64,0.00,,,0.00,,2013-06-16 16:43:00,
2013-06-16 12:53:00,81.0,68.0,30.11,SSW,207,7.0,13.0,65,0.00,,,0.00,,2013-06-16 16:53:00,
2013-06-16 13:02:00,81.0,68.0,30.11,SSW,207,7.0,13.0,65,0.00,,,0.00,,2013-06-16 17:02:00,
2013-06-16 13:12:00,81.0,68.0,30.11,SSW,208,9.0,14.0,64,0.00,,,0.00,,2013-06-16 17:12:00,
2013-06-16 13:22:00,81.0,68.0,30.11,SSW,208,9.0,14.0,64,0.00,,,0.00,,2013-06-16 17:22:00,
2013-06-16 13:34:00,81.0,68.0,30.10,SW,216,9.0,15.0,65,0.00,,,0.00,,2013-06-16 17:34:00,
2013-06-16 13:43:00,81.0,68.0,30.10,SSW,207,11.0,15.0,65,0.00,,,0.00,,2013-06-16 17:43:00,
2013-06-16 13:53:00,81.0,70.0,30.09,South,187,11.0,15.0,69,0.00,,,0.00,,2013-06-16 17:53:00,
2013-06-16 14:02:00,81.0,70.0,30.09,South,187,11.0,15.0,69,0.00,,,0.00,,2013-06-16 18:02:00,
2013-06-16 14:12:00,80.0,69.0,30.09,SW,214,11.0,16.0,69,0.00,,,0.00,,2013-06-16 18:12:00,
2013-06-16 14:22:00,80.0,68.0,30.09,SSW,208,14.0,17.0,67,0.00,,,0.00,,2013-06-16 18:22:00,
2013-06-16 14:34:00,80.0,68.0,30.09,SSW,208,14.0,17.0,67,0.00,,,0.00,,2013-06-16 18:34:00,
2013-06-16 14:43:00,81.0,70.0,30.08,South,188,12.0,19.0,70,0.00,,,0.00,,2013-06-16 18:43:00,
2013-06-16 14:52:00,81.0,70.0,30.08,South,188,12.0,19.0,70,0.00,,,0.00,,2013-06-16 18:52:00,
2013-06-16 15:01:00,81.0,71.0,30.08,SSW,197,10.0,19.0,72,0.00,,,0.00,,2013-06-16 19:01:00,
2013-06-16 15:12:00,81.0,70.0,30.08,SSW,211,13.0,20.0,70,0.00,,,0.00,,2013-06-16 19:12:00,
2013-06-16 15:22:00,81.0,69.0,30.07,SSW,201,12.0,17.0,67,0.00,,,0.00,,2013-06-16 19:22:00,
2013-06-16 15:34:00,81.0,69.0,30.07,SSW,201,12.0,17.0,67,0.00,,,0.00,,2013-06-16 19:34:00,
2013-06-16 15:43:00,81.0,70.0,30.07,SSW,197,13.0,20.0,69,0.00,,,0.00,,2013-06-16 19:43:00,
2013-06-16 15:53:00,81.0,69.0,30.07,SW,215,13.0,19.0,66,0.00,,,0.00,,2013-06-16 19:53:00,
2013-06-16 16:02:00,81.0,69.0,30.07,SW,215,13.0,19.0,66,0.00,,,0.00,,2013-06-16 20:02:00,
2013-06-16 16:12:00,81.0,70.0,30.07,SSW,204,13.0,20.0,69,0.00,,,0.00,,2013-06-16 20:12:00,
2013-06-16 16:22:00,81.0,70.0,30.06,SSW,210,11.0,18.0,70,0.00,,,0.00,,2013-06-16 20:22:00,
2013-06-16 16:33:00,81.0,70.0,30.06,SSW,210,11.0,18.0,70,0.00,,,0.00,,2013-06-16 20:33:00,
2013-06-16 16:42:00,81.0,69.0,30.06,SW,218,13.0,19.0,66,0.00,,,0.00,,2013-06-16 20:42:00,
2013-06-16 16:53:00,81.0,68.0,30.06,SSW,195,14.0,19.0,65,0.00,,,0.00,,2013-06-16 20:53:00,
2013-06-16 17:02:00,81.0,68.0,30.06,SSW,195,14.0,19.0,65,0.00,,,0.00,,2013-06-16 21:02:00,
2013-06-16 17:11:00,81.0,69.0,30.06,SSW,211,12.0,15.0,68,0.00,,,0.00,,2013-06-16 21:11:00,
2013-06-16 17:22:00,81.0,69.0,30.05,SSW,207,13.0,16.0,68,0.00,,,0.00,,2013-06-16 21:22:00,
2013-06-16 17:33:00,81.0,69.0,30.05,SSW,207,13.0,16.0,68,0.00,,,0.00,,2013-06-16 21:33:00,
2013-06-16 17:42:00,80.0,67.0,30.06,SW,218,14.0,19.0,65,0.00,,,0.00,,2013-06-16 21:42:00,
2013-06-16 17:53:00,80.0,68.0,30.06,SSW,207,15.0,20.0,66,0.00,,,0.00,,2013-06-16 21:53:00,
2013-06-16 18:02:00,80.0,68.0,30.06,SSW,207,15.0,20.0,66,0.00,,,0.00,,2013-06-16 22:02:00,
2013-06-16 18:12:00,80.0,68.0,30.06,SW,219,13.0,19.0,68,0.00,,,0.00,,2013-06-16 22:12:00,
2013-06-16 18:22:00,80.0,68.0,30.06,SW,217,11.0,17.0,66,0.00,,,0.00,,2013-06-16 22:22:00,
2013-06-16 18:32:00,80.0,68.0,30.06,SW,217,11.0,17.0,66,0.00,,,0.00,,2013-06-16 22:32:00,
2013-06-16 18:42:00,80.0,68.0,30.06,SSW,210,12.0,17.0,67,0.00,,,0.00,,2013-06-16 22:42:00,
2013-06-16 18:52:00,79.0,66.0,30.06,SW,215,12.0,18.0,65,0.00,,,0.00,,2013-06-16 22:52:00,
2013-06-16 19:02:00,79.0,66.0,30.06,SW,215,12.0,18.0,65,0.00,,,0.00,,2013-06-16 23:02:00,
2013-06-16 19:11:00,79.0,68.0,30.06,SW,214,13.0,19.0,69,0.00,,,0.00,,2013-06-16 23:11:00,
2013-06-16 19:22:00,79.0,69.0,30.07,SW,217,11.0,15.0,71,0.00,,,0.00,,2013-06-16 23:22:00,
2013-06-16 19:32:00,79.0,69.0,30.07,SW,217,11.0,15.0,71,0.00,,,0.00,,2013-06-16 23:32:00,
2013-06-16 19:42:00,79.0,70.0,30.07,SW,215,13.0,18.0,73,0.00,,,0.00,,2013-06-16 23:42:00,
2013-06-16 19:52:00,78.0,68.0,30.07,SSW,204,10.0,15.0,71,0.00,,,0.00,,2013-06-16 23:52:00,
2013-06-16 20:02:00,78.0,68.0,30.07,SSW,204,10.0,15.0,71,0.00,,,0.00,,2013-06-17 00:02:00,
2013-06-16 20:12:00,78.0,69.0,30.06,SSW,210,11.0,19.0,74,0.00,,,0.00,,2013-06-17 00:12:00,
2013-06-16 20:22:00,78.0,69.0,30.06,SSW,201,13.0,17.0,74,0.00,,,0.00,,2013-06-17 00:22:00,
2013-06-16 20:32:00,78.0,69.0,30.06,SSW,201,13.0,17.0,74,0.00,,,0.00,,2013-06-17 00:32:00,
2013-06-16 20:43:00,77.0,69.0,30.06,SSW,194,12.0,20.0,76,0.00,,,0.00,,2013-06-17 00:43:00,
2013-06-16 20:52:00,77.0,69.0,30.06,SSW,207,12.0,18.0,76,0.00,,,0.00,,2013-06-17 00:52:00,
2013-06-16 21:02:00,77.0,69.0,30.06,SSW,207,12.0,18.0,76,0.00,,,0.00,,2013-06-17 01:02:00,
2013-06-16 21:12:00,77.0,70.0,30.06,SSW,195,12.0,19.0,78,0.00,,,0.00,,2013-06-17 01:12:00,
2013-06-16 21:22:00,77.0,69.0,30.06,SSW,204,12.0,18.0,77,0.00,,,0.00,,2013-06-17 01:22:00,
2013-06-16 21:32:00,77.0,69.0,30.06,SSW,204,12.0,18.0,77,0.00,,,0.00,,2013-06-17 01:32:00,
2013-06-16 21:43:00,76.0,68.0,30.06,SSW,211,10.0,17.0,77,0.00,,,0.00,,2013-06-17 01:43:00,
2013-06-16 21:53:00,76.0,69.0,30.07,South,186,11.0,17.0,78,0.00,,,0.00,,2013-06-17 01:53:00,
2013-06-16 22:03:00,76.0,69.0,30.07,South,186,11.0,17.0,78,0.00,,,0.00,,2013-06-17 02:03:00,
2013-06-16 22:12:00,76.0,69.0,30.07,SW,222,10.0,18.0,78,0.00,,,0.00,,2013-06-17 02:12:00,
2013-06-16 22:22:00,76.0,69.0,30.08,WSW,238,9.0,16.0,78,0.00,,,0.00,,2013-06-17 02:22:00,
2013-06-16 22:34:00,76.0,69.0,30.08,WSW,238,9.0,16.0,78,0.00,,,0.00,,2013-06-17 02:34:00,
2013-06-16 22:43:00,76.0,69.0,30.08,SW,222,10.0,15.0,79,0.00,,,0.00,,2013-06-17 02:43:00,
2013-06-16 22:53:00,76.0,69.0,30.08,SW,219,11.0,13.0,80,0.00,,,0.00,,2013-06-17 02:53:00,
2013-06-16 23:02:00,76.0,69.0,30.08,SW,219,11.0,13.0,80,0.00,,,0.00,,2013-06-17 03:02:00,
2013-06-16 23:12:00,76.0,69.0,30.08,SW,233,10.0,14.0,79,0.00,,,0.00,,2013-06-17 03:12:00,
2013-06-16 23:22:00,76.0,69.0,30.08,SW,226,9.0,12.0,80,0.00,,,0.00,,2013-06-17 03:22:00,
2013-06-16 23:33:00,76.0,69.0,30.08,SW,226,9.0,12.0,80,0.00,,,0.00,,2013-06-17 03:33:00,
2013-06-16 23:44:00,76.0,69.0,30.08,SSW,197,9.0,16.0,80,0.00,,,0.00,,2013-06-17 03:44:00,
2013-06-16 23:53:00,76.0,70.0,30.08,SSW,203,9.0,14.0,81,0.00,,,0.00,,2013-06-17 03:53:00,